カタログに戻る

PSLV DEB

LostSSO
NORAD 28856·DEBRIS·🇮🇳 India

打ち上げ Oct 22, 2001 から Satish Dhawan Space Centre

Loading…

次のパス (今後24時間)

TLE

古いSource: Space-Track

元期: Nov 14, 2009, 04:23 UTC

1 28856U 01049PJ  09318.18304321 +.00000267 +00000-0 +53812-4 0  9994
2 28856 097.7379 302.1955 0043603 282.1076 084.3433 14.68270261276861

AllMySatでPSLV DEBをリアルタイム追跡

Download on the App Store